sat.trackr.live / text

‹ back to catalog

TRANSPORTER-13 OBJECT U

NORAD 63228 · 2025-052U

PAYLOAD ACTIVE UNKNOWN

§ Identity

Operator
Country
TBD
Launch date
2025-03-15
Launch site
AFWTR
Launch vehicle
Mass (kg)
RCS (m²)

External: N2YO · Heavens-Above · Gunter

§ Orbital elements

Epoch: 2026-09-22T22:11:27.203424Z

Period
94.46 min
Inclination
97.3767°
Eccentricity
0.0005714
Mean motion
15.24469585 rev/d
Perigee alt
488.5 km
Apogee alt
496.3 km
Semi-major
6,870.5 km
B*
1.6084e-4
RAAN
157.2178°
Arg perigee
147.7381°
Mean anomaly
212.4207°
Rev number
8,475

§ Raw data

TRANSPORTER-13 OBJECT U1 63228U 25052U   26265.92462041  .00003880  00000+0  16084-3 0  99942 63228  97.3767 157.2178 0005714 147.7381 212.4207 15.24469585 84752

JSON: /api/v1/satellites/63228 · /tle

For live sub-satellite position, see the globe view (requires WebGL).

§ Visibility from observer

Set your observer location to see the next 7 days of passes ≥ 10°. The values pass through the URL so the page stays shareable.

No JS? Fill the form by hand. The geolocation button needs JavaScript.